#timestamp,LO_Frequency,Hit,StdDev 
1602433295.4,286047005.5,P
1602433315.2,286047005.0,P
1602433335.0,286047007.4,P
1602433336.0,286047007.4,Y
1602433355.8,286046998.8,P
1602433375.6,286046997.3,N
1602433395.5,286046999.2,N
1602433415.3,286046998.1,N
1602433435.1,286047001.1,N
1602433455.9,286046997.1,N
1602433475.7,286046999.6,N
1602433495.6,286046996.5,N
1602433515.4,286046996.5,N
1602433535.2,286046996.9,N
1602433555.1,286046998.3,N
1602433556.0,286046998.3,N
1602433575.8,286047000.8,N
1602433595.6,286047002.5,N
1602433615.5,286047002.5,N
1602433635.3,286047003.7,N
1602433655.2,286047005.4,N
1602433675.9,286047008.3,N
1602433695.7,286047009.6,N
1602433715.6,286047008.0,N
1602433735.4,286047009.1,N
1602433755.2,286047009.3,N
1602433775.1,286047011.6,N
1602433776.0,286047011.6,N
1602433795.8,286047009.4,N
1602433815.7,286047011.8,N
1602433835.5,286047012.1,N
1602433855.3,286047010.8,N
1602433875.2,286047006.2,N
1602433895.0,286047005.1,N
1602433895.9,286047005.1,N
1602433915.7,286047005.8,N
1602433935.6,286047005.5,N
1602433955.4,286047005.8,N
1602433975.3,286047005.8,N
1602433995.1,286047004.8,N
1602433996.0,286047004.8,N
1602434015.8,286047009.1,N
1602434035.7,286047009.1,N
1602434055.5,286047007.5,N
1602434075.3,286047005.7,N
1602434095.2,286047001.3,N
1602434115.0,286047003.7,N
1602434115.9,286047003.7,N
1602434135.8,286047004.1,N
1602434155.6,286047005.9,N
1602434175.4,286047005.2,N
1602434195.3,286047007.5,N
1602434215.1,286047004.9,N
1602434235.8,286047004.8,N
1602434255.7,286047009.2,Y
1602434275.5,286046999.7,P
1602434295.4,286047000.4,N
1602434315.2,286047002.7,N
1602434335.0,286047004.2,N
1602434335.9,286047004.2,N
1602434355.8,286047003.0,N
1602434375.6,286047003.4,N
1602434395.4,286047005.9,N
1602434415.3,286047002.5,N
1602434435.1,286047000.9,N
1602434455.9,286046998.9,N
1602434475.7,286046998.3,N
1602434495.5,286046996.5,N
1602434515.4,286046999.3,N
1602434535.2,286046996.8,N
1602434555.0,286046995.8,N
1602434555.9,286046995.8,N
1602434575.8,286046995.3,N
1602434595.6,286046997.9,N
1602434615.5,286046997.7,N
1602434635.3,286046999.0,N
1602434655.1,286046995.4,N
1602434675.9,286046998.0,N
1602434695.7,286046994.9,N
1602434715.5,286046995.6,N
1602434735.4,286046995.7,N
1602434755.2,286046995.3,N
1602434775.1,286046995.4,N
1602434776.0,286046995.4,N
1602434795.8,286046995.4,N
1602434815.6,286046997.3,N
1602434835.5,286046999.3,N
1602434855.3,286046998.8,N
1602434875.1,286046998.9,N
1602434895.9,286046999.2,N
1602434915.7,286046996.7,N
1602434935.6,286046999.0,N
1602434955.4,286047000.5,N
1602434975.2,286047002.0,N
1602434995.1,286047001.3,N
1602434996.0,286047001.3,N
1602435015.8,286047003.1,N
1602435035.6,286047003.0,N
1602435055.5,286047004.4,N
1602435075.3,286047002.7,N
1602435095.2,286047002.7,N
1602435115.9,286047003.6,N
1602435135.7,286047005.8,N
1602435155.6,286047003.4,N
1602435175.4,286047003.3,N
1602435195.2,286047004.2,N
1602435215.1,286047003.8,N
1602435216.0,286047003.8,N
1602435235.8,286047003.3,N
1602435255.7,286047006.3,N
1602435275.5,286047007.3,N
1602435295.3,286047007.5,N
1602435315.2,286047008.8,N
1602435335.0,286047006.4,N
1602435335.9,286047006.4,N
1602435355.8,286047005.3,N
1602435375.6,286047005.5,N
1602435395.4,286047004.9,N
1602435415.3,286047006.1,N
1602435435.1,286047006.2,N
1602435455.8,286047007.9,Y
1602435475.7,286047005.2,P
1602435495.5,286047011.9,P
1602435515.4,286046999.9,N
1602435535.2,286046995.2,N
1602435555.0,286046993.0,N
1602435555.9,286046993.0,N
1602435575.8,286046990.8,N
1602435595.6,286046991.6,N
